{"data":{"norad_id":58517,"intl_designator":"2023-191K","name":"STARLINK-31011","alt_names":[],"object_type":"PAYLOAD","status":"ACTIVE","operator":null,"country":"US","launch_date":"2023-12-07","launch_site_code":"AFETR","launch_vehicle":null,"mission":null,"orbit_class":"UNKNOWN","rcs_meters":null,"size_class":null,"mass_kg":null,"dimensions":null,"purposes":["comms"],"wikipedia_slug":null,"has_3d_model":false,"image_url":null,"decayed_at":null,"tle_current":{"epoch":"2026-05-25T01:06:31.785408Z","epoch_age_seconds":81594,"freshness":"FRESH","line1":"1 58517U 23191K   26145.04620122 -.00000400  00000+0 -50109-5 0  9992","line2":"2 58517  43.0037  31.8244 0000949 266.2095  93.8648 15.27581182137154","mean_motion":15.27581182,"eccentricity":9.49e-5,"inclination_deg":43.0037,"raan_deg":31.8244,"arg_perigee_deg":266.2095,"mean_anomaly_deg":93.8648,"bstar":-5.0109e-6,"rev_number":13715,"period_min":94.266675772653,"perigee_km":482.39443048408,"apogee_km":483.69668293334,"semimajor_km":6861.1825567087,"source":"CELESTRAK","updated_at":"2026-05-25T13:38:18.657070Z"}}}